TimeHST,TemperatureF,Dew PointF,Humidity,Sea Level PressureIn,VisibilityMPH,Wind Direction,Wind SpeedMPH,Gust SpeedMPH,PrecipitationIn,Events,Conditions,WindDirDegrees,DateUTC
12:53 AM,75.9,66.9,74,30.03,10.0,East,5.8,-,N/A,,Scattered Clouds,100,2013-10-09 10:53:00
1:53 AM,75.9,66.0,71,30.03,10.0,ENE,6.9,-,N/A,,Scattered Clouds,70,2013-10-09 11:53:00
2:53 AM,75.0,64.9,71,30.01,10.0,ENE,15.0,-,N/A,,Partly Cloudy,70,2013-10-09 12:53:00
3:53 AM,75.9,64.9,69,29.99,10.0,NE,12.7,-,N/A,,Partly Cloudy,50,2013-10-09 13:53:00
4:53 AM,75.9,66.9,74,30.01,10.0,ENE,11.5,-,N/A,,Scattered Clouds,60,2013-10-09 14:53:00
5:53 AM,75.9,66.0,71,30.01,10.0,ENE,10.4,-,N/A,,Scattered Clouds,70,2013-10-09 15:53:00
6:53 AM,75.9,66.0,71,30.02,10.0,ENE,11.5,-,N/A,,Scattered Clouds,70,2013-10-09 16:53:00
7:53 AM,78.1,64.9,64,30.04,10.0,ENE,11.5,-,N/A,,Scattered Clouds,70,2013-10-09 17:53:00
8:53 AM,80.1,66.0,62,30.05,10.0,ENE,10.4,18.4,N/A,,Mostly Cloudy,70,2013-10-09 18:53:00
9:53 AM,82.9,64.0,53,30.04,10.0,ENE,16.1,25.3,N/A,,Mostly Cloudy,60,2013-10-09 19:53:00
10:53 AM,84.0,64.9,53,30.03,10.0,ENE,21.9,26.5,N/A,,Mostly Cloudy,70,2013-10-09 20:53:00
11:53 AM,84.0,64.9,53,30.02,10.0,ENE,19.6,26.5,N/A,,Mostly Cloudy,60,2013-10-09 21:53:00
12:53 PM,84.0,64.0,51,29.99,10.0,NE,16.1,-,N/A,,Mostly Cloudy,50,2013-10-09 22:53:00
1:53 PM,84.9,64.0,49,29.97,10.0,ENE,17.3,25.3,N/A,,Mostly Cloudy,70,2013-10-09 23:53:00
2:53 PM,84.0,64.9,53,29.96,10.0,ENE,16.1,21.9,N/A,,Mostly Cloudy,60,2013-10-10 00:53:00
3:53 PM,82.9,63.0,51,29.96,10.0,ENE,19.6,25.3,N/A,,Mostly Cloudy,70,2013-10-10 01:53:00
4:53 PM,81.0,64.9,58,29.96,10.0,NE,17.3,24.2,N/A,,Mostly Cloudy,50,2013-10-10 02:53:00
5:53 PM,79.0,64.9,62,29.98,10.0,ENE,19.6,24.2,N/A,,Mostly Cloudy,60,2013-10-10 03:53:00
6:53 PM,78.1,64.9,64,29.99,10.0,NE,12.7,-,N/A,,Scattered Clouds,50,2013-10-10 04:53:00
7:53 PM,77.0,66.0,69,30.00,10.0,East,10.4,-,N/A,,Scattered Clouds,80,2013-10-10 05:53:00
8:53 PM,77.0,66.0,69,30.01,10.0,ENE,10.4,-,N/A,,Scattered Clouds,70,2013-10-10 06:53:00
9:53 PM,75.9,66.9,74,30.01,10.0,ENE,11.5,-,N/A,,Scattered Clouds,70,2013-10-10 07:53:00
10:53 PM,75.9,66.9,74,30.01,10.0,ENE,8.1,-,N/A,,Scattered Clouds,60,2013-10-10 08:53:00
11:53 PM,75.0,66.0,73,30.00,10.0,NE,5.8,-,N/A,,Scattered Clouds,50,2013-10-10 09:53:00